www.pogodaiklimat.ru

Погода и климат >> Архив погоды >> Саудовская Аравия >> Эд-Даммам


ПОГОДА в Эд-Даммаме

  • Прогноз погоды в Эд-Даммаме
  • Монитор погоды в Эд-Даммаме

АРХИВ ПОГОДЫ в Эд-Даммаме

Время (UTC), дата Ветер
(напр.,м/с)
 
Видим.   Явления Облачность Т
(С)
Тd
(С)
f
(%)
Тe
(С)
Тes
(С)
Комфортность P
(гПа)
Po
(гПа)
Тmin
(С)
Tmax
(С)
R
(мм)
R24
(мм)
S
(см)
18 17.06 С 4 10 км ясно +35.4 +12.0 24 +35 +35 очень
жарко
1001.3 1000.0 +47.4
21 17.06 СЗ 4 10 км ясно +34.6 +12.0 25 +34 +34 очень
жарко
1000.7 999.4
00 18.06 СЗ 5 10 км ясно +31.5 +16.0 39 +34 +34 душно 1000.3 998.9
03 18.06 СЗ 5 10 км ясно +31.4 +15.0 37 +34 +34 душно 1001.6 1000.2
06 18.06 С 10 10 км ясно +40.3 +13.0 20 +40 +41 очень
жарко
1001.9 1000.5 +30.3
09 18.06 С 10 10 км ясно +43.4 +8.0 12 +41 +42 опасность
перегрева
1001.7 1000.3
12 18.06 С 12 10 км ясно +43.4 +5.0 10 +41 +41 опасность
перегрева
1000.9 999.5
15 18.06 С 8 10 км ясно +39.8 +6.0 13 +37 +37 очень
жарко
1000.9 999.5
18 18.06 СЗ 3 10 км 3/0
[Ci fib]
+36.0 +10.0 21 +35 +35 очень
жарко
1001.4 1000.0 +44.0
21 18.06 З 4 10 км ясно +31.6 +10.0 26 +31 +31 жарко 1000.3 998.9
00 19.06 СЗ 5 10 км ясно +31.6 +7.0 22 +30 +30 жарко 999.1 997.7
03 19.06 З 5 10 км ясно +30.1 +7.0 23 +29 +30 жарко 1000.0 998.6
06 19.06 С 9 10 км ясно +38.2 +11.0 20 +37 +39 очень
жарко
1000.7 999.3 +29.9
09 19.06 С 16 6000 м пыльный позёмок ясно +43.0 +5.0 10 +40 +40 очень
жарко
1000.3 998.9
12 19.06 С 11 6000 м пыльный позёмок ясно +41.7 +7.0 12 +39 +39 очень
жарко
999.3 997.9
15 19.06 С 8 6000 м пыльный позёмок ясно +39.0 +8.0 15 +37 +37 очень
жарко
999.1 997.7
18 19.06 СЗ 4 8000 м пыль ясно +35.3 +10.0 21 +34 +34 очень
жарко
1000.3 998.9 +43.0
21 19.06 СЗ 5 10 км ясно +31.7 +14.0 34 +33 +33 жарко 1000.4 999.0
00 20.06 СЗ 4 10 км ясно +29.1 +16.0 45 +32 +32 душно 1000.0 998.6
03 20.06 З 5 10 км ясно +29.4 +5.0 21 +28 +28 жарко 1001.3 999.9
06 20.06 СЗ 8 10 км ясно +37.0 +10.0 20 +36 +38 очень
жарко
1002.0 1000.6 +28.2
09 20.06 СЗ 14 10 км ясно +40.6 +5.0 11 +38 +38 очень
жарко
1001.1 999.7
12 20.06 С 10 8000 м пыльный позёмок ясно +40.8 +9.0 15 +39 +39 очень
жарко
999.4 998.0
15 20.06 С 8 10 км ясно +38.0 +9.0 17 +36 +36 очень
жарко
999.4 998.0
18 20.06 СЗ 2 10 км ясно +33.6 +12.0 27 +34 +34 очень
жарко
1000.6 999.2 +41.8
21 20.06 З 3 10 км ясно +29.7 +10.0 29 +30 +30 жарко 1000.4 999.0
00 21.06 З 4 10 км ясно +30.1 +8.0 25 +29 +29 жарко 1000.4 999.0
03 21.06 З 5 10 км ясно +29.6 +2.0 17 +27 +28 жарко 1001.5 1000.1
06 21.06 С 8 10 км ясно +37.5 +12.0 22 +37 +39 очень
жарко
1002.4 1001.0 +28.8
09 21.06 С 11 10 км ясно +40.7 +10.0 16 +39 +40 очень
жарко
1001.5 1000.1
12 21.06 С 10 10 км ясно +40.4 +7.0 13 +38 +38 очень
жарко
1000.0 998.6
15 21.06 С 8 10 км ясно +37.6 +7.0 15 +35 +35 очень
жарко
1000.0 998.6
18 21.06 СЗ 3 10 км ясно +32.2 +11.0 27 +32 +32 жарко 1000.6 999.2 +41.0
21 21.06 З 3 10 км ясно +30.0 +10.0 29 +30 +30 жарко 1000.3 998.9
00 22.06 З 5 10 км ясно +27.9 +8.0 29 +28 +28 жарко 1000.4 999.0
03 22.06 З 4 10 км ясно +28.8 +3.0 19 +27 +28 жарко 1001.7 1000.3
06 22.06 С 8 10 км ясно +37.2 +15.0 27 +38 +41 душно 1002.2 1000.8 +26.5
09 22.06 С 8 10 км ясно +40.3 +9.0 15 +38 +43 очень
жарко
1001.8 1000.4
12 22.06 С 8 10 км ясно +40.0 +8.0 15 +38 +40 очень
жарко
1001.1 999.7
15 22.06 С 7 10 км ясно +37.1 +12.0 22 +37 +37 очень
жарко
1001.1 999.7
18 22.06 В 4 10 км ясно +31.6 +21.0 53 +39 +39 очень
душно
1001.7 1000.3 +41.1
21 22.06 штиль 0 10 км ясно +29.3 +21.0 61 +37 +37 очень
душно
1001.3 999.9
00 23.06 штиль 0 10 км ясно +27.1 +18.0 58 +32 +32 очень
душно
1000.6 999.2
03 23.06 СЗ 3 10 км ясно +26.9 +16.0 51 +30 +31 душно 1002.4 1001.0
06 23.06 С 3 10 км ясно +35.1 +15.0 30 +37 +48 очень
душно
1003.1 1001.7 +25.7
09 23.06 нст 2 10 км ясно +40.1 +14.0 22 +41 +64 опасность
перегрева
1002.1 1000.7
12 23.06 В 3 8000 м пыль ясно +41.7 +15.0 21 +43 +52 опасность
перегрева
1000.8 999.4
15 23.06 В 5 7000 м пыль ясно +37.9 +15.0 26 +39 +39 очень
душно
1001.0 999.6
18 23.06 В 3 10 км ясно +32.4 +24.0 61 +44 +44 опасность
перегрева
1002.1 1000.7 +42.4
21 23.06 штиль 0 10 км ясно +31.1 +23.0 62 +41 +41 опасность
перегрева
1001.7 1000.3
00 24.06 ЮЗ 4 10 км ясно +28.7 +21.0 63 +36 +36 очень
душно
1000.8 999.4
03 24.06 СЗ 2 7000 м мгла ясно +28.3 +20.0 61 +35 +36 очень
душно
1002.5 1001.1
06 24.06 СЗ 4 8000 м пыль ясно +36.5 +14.0 26 +37 +48 очень
жарко
1003.8 1002.4 +27.2
09 24.06 З 4 8000 м пыль ясно +42.3 +8.0 13 +40 +56 опасность
солнечного
удара
1002.3 1000.9
12 24.06 З 5 10 км ясно +45.4 +7.0 10 +43 +49 опасность
перегрева
1000.3 998.9
15 24.06 С 3 10 км ясно +44.5 +4.0 9 +41 +42 опасность
перегрева
1000.3 998.9

 

Местоположение метеостанции Эд-Даммам (Саудовская Аравия): широта 26.45 долгота 49.82 высота над уровнем моря 12 м.

В архиве по умолчанию представлена погода в Эд-Даммаме за последнюю неделю. Архивные данные за месяц целиком и за предыдущие месяцы, начиная с января 2011 года, Вы можете получить, выбрав интересующий диапазон дат из раскрывающегося списка и нажав кнопку "Ввод!".


*Определитесь, кто Вы:
робот инопланетянин человек

Внимание! Время в таблицах - всемирное. Для получения местного времени необходимо прибавить поправку, которая равна 3 ч.

Смотрите также архив погоды в соседних городах и на ближайших метеорологических станциях:

Погода в Дахране (Саудовская Аравия) (40 км)
Погода в Бахрейне (Бахрейн) (85 км)
Погода в Эль-Хуфуфе (Саудовская Аравия) (132 км)
Погода в Духане (Катар) (149 км)
Погода в Абу Самба (Катар) (214 км)
Погода в Дохе (Катар) (220 км)
Погода в Аэропорту Хамад (Катар) (222 км)
Погода в Доха порту (Катар) (235 км)
Погода в Нувасибе (Кувейт) (251 км)
Погода в Бендер-Дейере (Иран) (259 км)

Пояснения к столбцам:

Ветер - указаны скорость ветра в м/с - средняя за 10 мин, порывы в срок и между сроками (в фигурных скобках) и направление, откуда дует ветер: С - северный, СВ - северо-восточный, В - восточный, ЮВ - юго-восточный, Ю - южный, ЮЗ - юго-западный, З - западный, СЗ - северо-западный.
Видимость - горизонтальная дальность видимости в метрах или километрах. При видимости от 1 до 10 км при отсутствии осадков обычно наблюдается дымка, при ухудшении видимости до 1 км и менее - туман. В сухую погоду видимость может ухудшаться дымом, пылью или мглою.
Явления - указаны атмосферные явления, наблюдавшиеся в срок или в последний час перед сроком; фигурными скобками обозначены явления, наблюдавшиеся между сроками (за 1-3 часа до срока); квадратными скобками обозначены град или гололедные отложения с указанием их диаметра в мм.
Облачность - указаны через наклонную черту общая и нижняя облачность в баллах и высота нижней границы облаков в метрах; квадратными скобками обозначены формы облаков: Ci - перистые, Cs - перисто-слоистые, Cc - перисто-кучевые, Ac - высококучевые, As - высокослоистые, Sc - слоисто-кучевые, Ns - слоисто-дождевые, Cu - кучевые, Cb - кучево-дождевые. Подробнее классификацию облаков см. в Атласе облаков (PDF).
T - Температура воздуха - температура, измеренная на высоте 2 м над землей.
Td - Температура точки росы - температура, при понижении до которой содержащийся в воздухе водяной пар достигнет насыщения.
f - Относительная влажность воздуха - влажноcть воздуха, измеренная на высоте 2 м над землей.
Te - Эффективная температура - температура, которую ощущает одетый по сезону человек в тени. Характеристика душности погоды. При расчете учитывается влияние влажности воздуха и скорости ветра на теплоощущения человека.
Tes - Эффективная температура на солнце - температура, которую ощущает человек, с поправкой на солнечный нагрев. Характеристика знойности погоды. Зависит от высоты солнца над горизонтом, облачности и скорости ветра. Ночью, в пасмурную погоду, а также при ветре 12 м/с и более поправка равна нулю.
P - Атмосферное давление - приведенное к уровню моря атмосферное давление.
Po - Атмосферное давление - измеренное на уровне метеостанции атмосферное давление.
Tmin - Минимальная температура - минимум температуры воздуха на высоте 2 м над землей.
Tmax - Максимальная температура - максимум температуры воздуха на высоте 2 м над землей.
R - Количество осадков - Количество выпавших осадков за период времени, мм. При наведении курсора мыши на число - период времени, за который выпало указанное количество осадков.
R24 - Количество осадков - Количество выпавших осадков за 24 часа, мм.
S - Снежный покров - Высота снежного покрова, см. При наведении курсора мыши на число - состояние снежного покрова и степень покрытия местности в баллах.